| time (UTC) | temp F | wind direction | speed MPH | gust MPH | rain 1hr in | rain 24hr in | rain mn in | humidity % | barometer mb |
| 20260507144815 | 68 | 213 | 0.0 | 0.0 | 0.00 | 0.00 | 0.00 | 83 | 1008.3 |
| 20260507143339 | 68 | 213 | 0.0 | 0.0 | 0.00 | 0.00 | 0.00 | 83 | 1008.4 |
| 20260507141824 | 68 | 213 | 0.0 | 0.0 | 0.00 | 0.00 | 0.00 | 83 | 1008.4 |
| 20260507140327 | 69 | 213 | 0.0 | 0.0 | 0.00 | 0.00 | 0.00 | 83 | 1008.6 |
| 20260507134815 | 69 | 215 | 0.0 | 0.0 | 0.00 | 0.00 | 0.00 | 82 | 1008.4 |
| 20260507133321 | 69 | 216 | 0.0 | 0.0 | 0.00 | 0.00 | 0.00 | 82 | 1008.4 |
| 20260507131821 | 70 | 215 | 0.0 | 0.0 | 0.00 | 0.00 | 0.00 | 82 | 1008.4 |
| 20260507130331 | 69 | 215 | 0.0 | 0.0 | 0.00 | 0.00 | 0.00 | 83 | 1008.5 |
| 20260507124858 | 69 | 215 | 0.0 | 0.0 | 0.00 | 0.00 | 0.00 | 84 | 1008.5 |
| 20260507123315 | 69 | 214 | 0.0 | 0.0 | 0.00 | 0.00 | 0.00 | 85 | 1008.6 |
| 20260507121823 | 69 | 215 | 0.0 | 0.0 | 0.00 | 0.00 | 0.00 | 85 | 1008.7 |
| 20260507120347 | 69 | 111 | 0.0 | 0.0 | 0.00 | 0.00 | 0.00 | 84 | 1008.5 |
| 20260507114832 | 69 | 140 | 0.0 | 0.0 | 0.00 | 0.00 | 0.00 | 85 | 1008.7 |
| 20260507113318 | 69 | 133 | 0.0 | 0.0 | 0.00 | 0.00 | 0.00 | 85 | 1008.6 |
| 20260507111830 | 69 | 124 | 0.0 | 0.0 | 0.00 | 0.00 | 0.00 | 86 | 1008.6 |
| 20260507110329 | 69 | 119 | 0.0 | 0.0 | 0.00 | 0.00 | 0.00 | 86 | 1008.4 |
| 20260507104816 | 69 | 29 | 0.0 | 0.0 | 0.00 | 0.00 | 0.00 | 86 | 1008.4 |
| 20260507103322 | 69 | 115 | 2.0 | 0.0 | 0.00 | 0.00 | 0.00 | 86 | 1008.1 |
| 20260507101829 | 70 | 109 | 2.0 | 0.0 | 0.00 | 0.00 | 0.00 | 86 | 1008.1 |
| 20260507100334 | 70 | 132 | 0.0 | 0.0 | 0.00 | 0.00 | 0.00 | 85 | 1007.9 |
| 20260507094816 | 70 | 161 | 1.0 | 0.0 | 0.00 | 0.00 | 0.00 | 85 | 1007.9 |
| 20260507093319 | 71 | 105 | 1.0 | 0.0 | 0.00 | 0.00 | 0.00 | 84 | 1007.8 |
| 20260507091828 | 71 | 101 | 3.0 | 0.0 | 0.00 | 0.00 | 0.00 | 83 | 1007.9 |
| 20260507090333 | 72 | 117 | 1.0 | 0.0 | 0.00 | 0.00 | 0.00 | 82 | 1007.7 |
| 20260507084814 | 72 | 122 | 1.0 | 0.0 | 0.00 | 0.00 | 0.00 | 81 | 1007.9 |
| 20260507083320 | 73 | 161 | 0.0 | 0.0 | 0.00 | 0.00 | 0.00 | 80 | 1008.0 |
| 20260507081849 | 73 | 110 | 0.0 | 0.0 | 0.00 | 0.00 | 0.00 | 78 | 1007.9 |
| 20260507080317 | 74 | 91 | 1.0 | 0.0 | 0.00 | 0.00 | 0.00 | 77 | 1008.1 |
| 20260507074845 | 74 | 188 | 2.0 | 0.0 | 0.00 | 0.00 | 0.00 | 77 | 1008.1 |
| 20260507073329 | 75 | 105 | 1.0 | 0.0 | 0.00 | 0.00 | 0.00 | 76 | 1008.4 |
| 20260507071830 | 74 | 186 | 1.0 | 0.0 | 0.00 | 0.00 | 0.00 | 76 | 1008.4 |
| 20260507070317 | 74 | 186 | 1.0 | 0.0 | 0.00 | 0.00 | 0.00 | 77 | 1008.5 |
| 20260507064825 | 74 | 146 | 1.0 | 0.0 | 0.00 | 0.00 | 0.00 | 77 | 1008.6 |
| 20260507063350 | 73 | 108 | 2.0 | 0.0 | 0.00 | 0.00 | 0.00 | 78 | 1008.5 |
| 20260507061836 | 73 | 101 | 1.0 | 0.0 | 0.00 | 0.00 | 0.00 | 79 | 1008.8 |
| 20260507060317 | 72 | 123 | 2.0 | 0.0 | 0.00 | 0.00 | 0.00 | 79 | 1009.4 |
| 20260507054843 | 72 | 103 | 2.0 | 0.0 | 0.00 | 0.00 | 0.00 | 79 | 1009.4 |
| 20260507053327 | 72 | 113 | 1.0 | 0.0 | 0.00 | 0.00 | 0.00 | 79 | 1009.6 |
| 20260507051836 | 72 | 232 | 3.0 | 0.0 | 0.00 | 0.00 | 0.00 | 79 | 1009.9 |
| 20260507050317 | 73 | 111 | 1.0 | 0.0 | 0.00 | 0.00 | 0.00 | 77 | 1010.0 |
| 20260507044844 | 73 | 98 | 1.0 | 0.0 | 0.00 | 0.00 | 0.00 | 77 | 1010.3 |
| 20260507043329 | 73 | 226 | 3.0 | 0.0 | 0.00 | 0.00 | 0.00 | 77 | 1010.6 |
| 20260507041837 | 73 | 164 | 1.0 | 0.0 | 0.00 | 0.00 | 0.00 | 77 | 1010.8 |
| 20260507040320 | 73 | 150 | 2.0 | 0.0 | 0.00 | 0.00 | 0.00 | 77 | 1011.0 |
| 20260507034829 | 73 | 155 | 2.0 | 0.0 | 0.00 | 0.00 | 0.00 | 75 | 1011.1 |
| 20260507033334 | 74 | 128 | 1.0 | 0.0 | 0.00 | 0.00 | 0.00 | 73 | 1011.3 |
| 20260507031816 | 75 | 117 | 3.0 | 0.0 | 0.00 | 0.00 | 0.00 | 71 | 1011.3 |
| 20260507030342 | 76 | 121 | 1.0 | 0.0 | 0.00 | 0.00 | 0.00 | 68 | 1011.3 |
| 20260507024830 | 75 | 105 | 3.0 | 0.0 | 0.00 | 0.00 | 0.00 | 71 | 1011.6 |
| 20260507023316 | 74 | 107 | 4.0 | 0.0 | 0.00 | 0.00 | 0.00 | 72 | 1011.7 |
| 20260507021818 | 75 | 109 | 2.0 | 0.0 | 0.00 | 0.00 | 0.00 | 69 | 1011.9 |
| 20260507020323 | 75 | 116 | 3.0 | 0.0 | 0.00 | 0.00 | 0.00 | 67 | 1012.0 |
| 20260507014816 | 76 | 107 | 1.0 | 0.0 | 0.00 | 0.00 | 0.00 | 65 | 1012.2 |
| 20260507013315 | 76 | 107 | 0.0 | 0.0 | 0.00 | 0.00 | 0.00 | 63 | 1012.3 |
| 20260507011829 | 76 | 109 | 0.0 | 0.0 | 0.00 | 0.00 | 0.00 | 64 | 1012.7 |
| 20260507010357 | 76 | 110 | 0.0 | 0.0 | 0.00 | 0.00 | 0.00 | 65 | 1012.7 |
| 20260507004817 | 75 | 110 | 0.0 | 0.0 | 0.00 | 0.00 | 0.00 | 66 | 1012.7 |
| 20260507003343 | 74 | 110 | 0.0 | 0.0 | 0.00 | 0.00 | 0.00 | 67 | 1012.9 |
| 20260507001830 | 73 | 110 | 0.0 | 0.0 | 0.00 | 0.00 | 0.00 | 68 | 1013.2 |
| 20260507000317 | 72 | 110 | 0.0 | 0.0 | 0.00 | 0.00 | 0.00 | 69 | 1013.2 |
| 20260506234817 | 71 | 110 | 0.0 | 0.0 | 0.00 | 0.00 | 0.00 | 73 | 1013.4 |
| 20260506233329 | 68 | 110 | 0.0 | 0.0 | 0.00 | 0.00 | 0.00 | 75 | 1013.7 |
| 20260506231830 | 67 | 110 | 0.0 | 0.0 | 0.00 | 0.00 | 0.00 | 77 | 1013.7 |
| 20260506230315 | 67 | 110 | 0.0 | 0.0 | 0.00 | 0.00 | 0.00 | 77 | 1013.9 |
| 20260506224843 | 66 | 110 | 0.0 | 0.0 | 0.00 | 0.00 | 0.00 | 79 | 1014.0 |
| 20260506223326 | 66 | 110 | 0.0 | 0.0 | 0.00 | 0.00 | 0.00 | 81 | 1014.0 |
| 20260506221814 | 65 | 110 | 0.0 | 0.0 | 0.00 | 0.00 | 0.00 | 83 | 1014.4 |
| 20260506220317 | 64 | 110 | 0.0 | 0.0 | 0.00 | 0.00 | 0.00 | 84 | 1014.4 |
| 20260506214824 | 63 | 110 | 0.0 | 0.0 | 0.00 | 0.00 | 0.00 | 85 | 1014.6 |
| 20260506213330 | 62 | 110 | 0.0 | 0.0 | 0.00 | 0.00 | 0.00 | 88 | 1014.6 |
| 20260506211818 | 62 | 110 | 0.0 | 0.0 | 0.00 | 0.00 | 0.00 | 89 | 1014.6 |
| 20260506210325 | 61 | 110 | 0.0 | 0.0 | 0.00 | 0.00 | 0.00 | 90 | 1014.7 |
| 20260506204825 | 61 | 110 | 0.0 | 0.0 | 0.00 | 0.00 | 0.00 | 91 | 1014.6 |
| 20260506203330 | 61 | 110 | 0.0 | 0.0 | 0.00 | 0.00 | 0.00 | 91 | 1014.5 |
| 20260506201819 | 61 | 110 | 0.0 | 0.0 | 0.00 | 0.00 | 0.00 | 92 | 1014.4 |
| 20260506200323 | 61 | 110 | 0.0 | 0.0 | 0.00 | 0.00 | 0.00 | 91 | 1014.3 |
| 20260506194832 | 61 | 110 | 0.0 | 0.0 | 0.00 | 0.00 | 0.00 | 91 | 1014.3 |
| 20260506193331 | 62 | 110 | 0.0 | 0.0 | 0.00 | 0.00 | 0.00 | 91 | 1014.5 |
| 20260506191817 | 62 | 110 | 0.0 | 0.0 | 0.00 | 0.00 | 0.00 | 91 | 1014.7 |
| 20260506190323 | 62 | 110 | 0.0 | 0.0 | 0.00 | 0.00 | 0.00 | 91 | 1014.9 |
| 20260506184835 | 63 | 110 | 0.0 | 0.0 | 0.00 | 0.00 | 0.00 | 91 | 1015.0 |
| 20260506183321 | 63 | 110 | 0.0 | 0.0 | 0.00 | 0.00 | 0.00 | 91 | 1015.1 |
| 20260506181821 | 63 | 110 | 0.0 | 0.0 | 0.00 | 0.00 | 0.00 | 90 | 1014.8 |
| 20260506180328 | 63 | 110 | 0.0 | 0.0 | 0.00 | 0.00 | 0.00 | 90 | 1014.9 |
| 20260506174835 | 63 | 110 | 0.0 | 0.0 | 0.00 | 0.00 | 0.00 | 90 | 1015.1 |
| 20260506173320 | 63 | 110 | 0.0 | 0.0 | 0.00 | 0.00 | 0.00 | 90 | 1015.1 |
| 20260506171824 | 63 | 110 | 0.0 | 0.0 | 0.00 | 0.00 | 0.00 | 90 | 1015.3 |
| 20260506170329 | 63 | 110 | 0.0 | 0.0 | 0.00 | 0.00 | 0.00 | 90 | 1015.2 |
| 20260506164839 | 63 | 110 | 0.0 | 0.0 | 0.00 | 0.00 | 0.00 | 90 | 1015.6 |
| 20260506163337 | 63 | 110 | 0.0 | 0.0 | 0.00 | 0.00 | 0.00 | 90 | 1015.6 |
| 20260506161823 | 63 | 110 | 0.0 | 0.0 | 0.00 | 0.00 | 0.00 | 90 | 1015.7 |
| 20260506160350 | 64 | 110 | 0.0 | 0.0 | 0.00 | 0.00 | 0.00 | 90 | 1015.7 |
| 20260506154817 | 64 | 110 | 0.0 | 0.0 | 0.00 | 0.00 | 0.00 | 90 | 1015.9 |
| 20260506153323 | 64 | 110 | 0.0 | 0.0 | 0.00 | 0.00 | 0.00 | 90 | 1016.0 |
| 20260506151827 | 64 | 110 | 0.0 | 0.0 | 0.00 | 0.00 | 0.00 | 90 | 1016.3 |
| 20260506150314 | 64 | 110 | 0.0 | 0.0 | 0.00 | 0.00 | 0.00 | 90 | 1016.5 |